Regional Weather Roundup
Issued by NWS Sterling, VA

Home | Current Version | Previous Version | Text Only | Print | Product List | Glossary Off
Versions: 1 2 3 4 5 6 7 8 9 10 11 12 13 14 15 16 17 18 19 20 21 22 23 24 25 26 27 28 29 30 31 32 33 34 35 36 37 38 39 40 41 42 43 44 45 46 47 48 49 50

000
ASUS41 KLWX 192011
RWRLWX

REGIONAL WEATHER ROUNDUP
NATIONAL WEATHER SERVICE BALTIMORE MD/WASHINGTON DC
400 PM EDT THU OCT 19 2017

Note: "FAIR" indicates few or no clouds below 12,000 feet
with no significant weather and/or obstructions to visibility.
 TC=TEMPERATURE CELSIUS

 * =Non NWS site. Station does not report precipitation (e.g. rain,
    snow, etc.), thunder, or fog.

DCZ001-MDZ009-015-VAZ040>042-051-053>054-192100-
WASHINGTON METRO

CITY           SKY/WX    TMP DP  RH WIND       PRES   REMARKS
WASHINGTON NAT FAIR      71  51  49 S10       30.17F
DULLES         FAIR      73  44  35 SW6       30.17F
ANDREWS AFB    FAIR      72  43  35 SW7       30.16F
FT BELVOIR     FAIR      72  46  39 S5        30.17F
QUANTICO       FAIR      73  53  49 S7        30.18F
COLLEGE PARK*  FAIR      72  45  37 S3        30.16F
LEESBURG*      FAIR      75  50  41 S6        30.17F
MANASSAS*      FAIR      74  45  35 S7        30.17F
GAITHERSBURG*  FAIR      73  46  38 W6        30.17F

$$

MDZ006>007-011-014-192100-
BALTIMORE METRO

CITY           SKY/WX    TMP DP  RH WIND       PRES   REMARKS
BWI AIRPORT    FAIR      72  46  39 S5        30.15F
MD SCIENCE CTR   N/A     74  45  35 MISG      30.15F
MARTIN STATE   SUNNY     70  55  60 SE14      30.18F
ANNAPOLIS      FAIR      70  54  56 SE10      30.17F
FORT MEADE*    FAIR      70  46  43 SW6       30.18F

$$

MDZ012-015-019>023-192100-
MARYLAND EASTERN SHORE

CITY           SKY/WX    TMP DP  RH WIND       PRES   REMARKS
OCEAN CITY     FAIR      69  57  65 S8        30.19F
SALISBURY      FAIR      71  49  45 VRB7      30.18F
CAMBRIDGE*     SUNNY     70  50  49 VRB6      30.19F
EASTON*        SUNNY     70  45  40 SW9       30.22F

$$

MDZ017>025-192100-
SOUTHERN MARYLAND

CITY           SKY/WX    TMP DP  RH WIND       PRES   REMARKS
PATUXENT RIVER FAIR      72  47  40 SW6       30.18F
ST INIGOES     FAIR      72  49  44 S5        30.18F
LEONARDTOWN*   NOT AVBL

$$

MDZ003>005-192100-
NORTH CENTRAL MARYLAND

CITY           SKY/WX    TMP DP  RH WIND       PRES   REMARKS
FREDERICK*     SUNNY     75  43  31 SW9       30.18F
HAGERSTOWN APT FAIR      74  45  35 SW6       30.14F
WESTMINSTER*   FAIR      73  46  38 SW10      30.15F

$$

MDZ501>502-192100-
WESTERN MARYLAND

CITY           SKY/WX    TMP DP  RH WIND       PRES   REMARKS
OAKLAND*       FAIR      63  36  36 SW9       30.20S
CUMBERLAND*    FAIR      77  39  25 SW9       30.18S

$$

VAZ025>031-192100-
SHENANDOAH VALLEY

CITY           SKY/WX    TMP DP  RH WIND       PRES   REMARKS
WINCHESTER*    FAIR      72  43  35 SW5       30.15F
FRONT ROYAL*   FAIR      77  41  27 SW6       30.15S
LURAY*         FAIR      77  37  24 SW6       30.16F
NEW MARKET*    FAIR      76  33  20 S6        30.16S
STAUNTON*      FAIR      74  40  28 S7        30.20S
WAYNESBORO*    FAIR      73  40  31 SW3       30.20F

$$

WVZ021-048>050-054>055-192100-
EASTERN WEST VIRGINIA PANHANDLE

CITY           SKY/WX    TMP DP  RH WIND       PRES   REMARKS
MARTINSBURG    FAIR      73  44  35 S8        30.14F
PETERSBURG*    FAIR      77  39  25 W5        30.15F

$$

VAZ036>039-050-192100-
CENTRAL FOOTHILLS

CITY           SKY/WX    TMP DP  RH WIND       PRES   REMARKS
CHARLOTTESVILL FAIR      76  42  29 SE8       30.18F
CULPEPER*      FAIR      76  39  25 S6        30.17F
ORANGE*        FAIR      73  43  33 CALM      30.18S
GORDONSVILLE*  FAIR      75  45  33 S5        30.17F
WARRENTON*     FAIR      76  37  24 S6        30.17F

$$

VAZ055>057-192100-
NORTH AND CENTRAL PIEDMONT

CITY           SKY/WX    TMP DP  RH WIND       PRES   REMARKS
FREDERICKSBRG* FAIR      75  46  35 SW5       30.17F
STAFFORD*      FAIR      74  42  31 CALM      30.21F

$$

NCZ024-NYZ072-PAZ021-071-VAZ022-071-192100-
OTHER REGIONAL OBSERVATIONS

CITY           SKY/WX    TMP DP  RH WIND       PRES   REMARKS
NEW YORK CITY  FAIR      70  42  36 VRB3      30.13F
PHILADELPHIA   FAIR      71  44  37 SW14      30.14F
PITTSBURGH     PTSUNNY   69  46  43 SW8G20    30.16F
ROANOKE        FAIR      75  44  33 S5        30.23F
RICHMOND       FAIR      74  43  32 VRB5      30.19F
RALEIGH        FAIR      76  49  38 W6        30.23S

$$

ANZ530>537-192100-
MARINE OBSERVATIONS

STATION/POSITION TIME  TEMP    WIND        PRES
                       AIR SEA DIR/SP/G
                 (UTC) (F)     (DEG/KT/KT) (MB)
THOMAS PT LIGHT  2000   66 67  170/ 13/ 15   N/A
BALT KEY BRIDGE  1948   71     210/  4/  7 1021.1F
COVE POINT       1948   69     220/  3/  9 1022.7F
LEWISETTA        1948   71 66  270/  6/  9 1022.0F
SOLOMONS ISLAND  1948   71 70  240/  5/ 10 1021.7F
PINEY POINT      1942          100/  2/  2   N/A

$$




USA.gov is the U.S. government's official web portal to all federal, state and local government web resources and services.